Weather Roundup
Issued by NWS Springfield, MO

Home | Current Version | Previous Version | Text Only | Print | Product List | Glossary On
Versions: 1 2 3 4 5 6 7 8 9 10 11 12 13 14 15 16 17 18 19 20 21 22 23 24 25 26 27 28 29 30 31 32 33 34 35 36 37 38 39 40 41 42 43 44 45 46 47 48 49 50
000
NZUS99 KSGF 230007
HRRSGF

HOURLY WEATHER
NATIONAL WEATHER SERVICE SPRINGFIELD MO
700 PM CDT WED MAR 22 2017

......SGF CWA......

CITY           SKY/WX    TMP DP  RH WIND       PRES   REMARKS
SPRINGFIELD    CLOUDY    57  32  38 SE15      30.20S
6HR MIN TEMP:  57; 6HR MAX TEMP:  61;

JOPLIN         CLOUDY    56  36  47 SE13G21   30.18S
6HR MIN TEMP:  53; 6HR MAX TEMP:  57;

WEST PLAINS    CLOUDY    57  28  33 E9        30.26S
6HR MIN TEMP:  55; 6HR MAX TEMP:  61;

ROLLA          CLEAR     50  24  36 E12       30.28R
6HR MIN TEMP:  49; 6HR MAX TEMP:  54;

OSAGE BEACH    MOCLDY   N/A N/A N/A E13       30.27R
BRANSON        CLOUDY    54  34  47 SE9       30.23S

......SURROUNDING SGF CWA......

CITY           SKY/WX    TMP DP  RH WIND       PRES   REMARKS
CHANUTE        CLOUDY    57  32  38 SE14      30.16S
PARSONS        CLOUDY    57  36  45 SE9       30.16S
COFFEYVILLE    CLOUDY    58  39  49 E10       30.15R
EMPORIA        CLOUDY    56  31  38 E14G23    30.15R
GROVE OK       CLOUDY    57  43  58 E7        30.16F
ROGERS AR      CLOUDY    54  42  64 E15       30.18F
SILOAM SPRINGS CLOUDY    55  39  54 E8        30.15F
HARRISON AR    CLOUDY    54  38  54 SE8       30.23S
NEAR YELLVILLE CLOUDY    57  28  33 E6        30.23R

......KANSAS AND MISSOURI......

CITY           SKY/WX    TMP DP  RH WIND       PRES   REMARKS
KANSAS CTY INT CLOUDY    53  25  33 E20G26    30.22F
DOWNTOWN KC    CLOUDY    55  25  31 E16G22    30.21S
COLUMBIA       CLEAR     50  21  32 E14       30.30R
SEDALIA        PTCLDY    53  25  33 E12       30.28S
ST JOSEPH      MOCLDY    53  26  35 E12G20    30.23S
ST LOUIS       PTCLDY    49  16  26 E12       30.37S
SPIRIT OF STL  CLEAR     47  18  31 E10       30.35F
KIRKSVILLE     CLOUDY    45  16  31 E14       30.33F
WICHITA        MOCLDY    57  39  51 E9        30.09F
TOPEKA         CLOUDY    56  30  37 E15       30.18S
OLATHE         CLOUDY    52  29  41 E14       30.19F

......TENNESSEE......

CITY           SKY/WX    TMP DP  RH WIND       PRES   REMARKS
MEMPHIS        MOCLDY    62  31  31 NE13      30.26S
NASHVILLE      MOCLDY    52  19  27 N12       30.33R

......ARKANSAS.......

CITY           SKY/WX    TMP DP  RH WIND       PRES   REMARKS
FAYETTEVILLE   CLOUDY    59  46  62 SE8       30.17R
FT SMITH       MOCLDY    61  44  53 E16G23    30.15S
LITTLE ROCK    PTCLDY    59  45  59 NE12      30.24R

......OKLAHOMA.......

CITY           SKY/WX    TMP DP  RH WIND       PRES   REMARKS
TULSA          CLOUDY    60  46  59 E10       30.11S
PONCA CITY     CLEAR     63  46  54 E13       30.08S
MCALESTER      CLOUDY    68  55  63 SE6       30.11S
OKLAHOMA CITY  CLOUDY    67  55  65 SE15      30.05R

......IOWA............

CITY           SKY/WX    TMP DP  RH WIND       PRES   REMARKS
DES MOINES     CLOUDY    45  22  40 E14G21    30.31F
QUAD CITIES    MOCLDY    41  21  44 SE10      30.43F

......ILLINOIS........

CITY           SKY/WX    TMP DP  RH WIND       PRES   REMARKS
QUINCY         CLOUDY    46   9  22 E13       30.37S
CHICAGO        CLOUDY    31  17  56 NE9       30.50F WCI  23



USA.gov is the U.S. government's official web portal to all federal, state and local government web resources and services.